Time,TemperatureF,DewpointF,PressureIn,WindDirection,WindDirectionDegrees,WindSpeedMPH,WindSpeedGustMPH,Humidity,HourlyPrecipIn,Conditions,Clouds,dailyrainin,SoftwareType,DateUTC
2013-01-11 00:02:00,62.0,61.5,29.83,South,180,2.0,-999.0,98,0.00,,,0.00,Rainwise IP-100,2013-01-11 06:02:00,
2013-01-11 00:07:00,62.0,61.5,29.83,South,180,3.0,-999.0,98,0.00,,,0.00,Rainwise IP-100,2013-01-11 06:07:00,
2013-01-11 00:12:00,62.0,61.5,29.83,SSW,202,5.0,-999.0,98,0.00,,,0.00,Rainwise IP-100,2013-01-11 06:12:00,
2013-01-11 00:17:00,62.0,61.5,29.83,SSW,202,6.0,-999.0,98,0.00,,,0.00,Rainwise IP-100,2013-01-11 06:17:00,
2013-01-11 00:22:00,62.0,61.5,29.82,SSE,157,6.0,-999.0,98,0.00,,,0.00,Rainwise IP-100,2013-01-11 06:22:00,
2013-01-11 00:27:00,62.0,61.5,29.82,South,180,6.0,-999.0,98,0.06,,,0.01,Rainwise IP-100,2013-01-11 06:27:00,
2013-01-11 00:32:00,62.0,61.5,29.82,SW,225,6.0,-999.0,98,0.12,,,0.02,Rainwise IP-100,2013-01-11 06:32:00,
2013-01-11 00:35:00,62.0,61.5,29.82,South,180,7.0,-999.0,98,0.18,,,0.04,Rainwise IP-100,2013-01-11 06:35:00,
2013-01-11 00:40:00,62.0,61.5,29.82,SSW,202,5.0,-999.0,98,0.24,,,0.07,Rainwise IP-100,2013-01-11 06:40:00,
2013-01-11 00:45:00,62.0,61.5,29.83,SW,225,3.0,-999.0,98,0.42,,,0.12,Rainwise IP-100,2013-01-11 06:45:00,
2013-01-11 00:51:00,62.0,61.5,29.83,SW,225,10.0,-999.0,98,0.60,,,0.17,Rainwise IP-100,2013-01-11 06:51:00,
2013-01-11 00:56:00,61.0,60.5,29.85,West,270,1.0,-999.0,98,1.44,,,0.36,Rainwise IP-100,2013-01-11 06:56:00,
2013-01-11 01:01:00,61.0,60.5,29.85,SSW,202,7.0,-999.0,98,1.92,,,0.49,Rainwise IP-100,2013-01-11 07:01:00,
2013-01-11 01:06:00,61.0,60.5,29.85,WNW,292,11.0,-999.0,98,1.02,,,0.53,Rainwise IP-100,2013-01-11 07:06:00,
2013-01-11 01:11:00,59.0,58.0,29.85,WNW,292,7.0,-999.0,98,0.72,,,0.62,Rainwise IP-100,2013-01-11 07:11:00,
2013-01-11 01:16:00,58.0,57.5,29.85,South,180,7.0,-999.0,98,0.84,,,0.67,Rainwise IP-100,2013-01-11 07:16:00,
2013-01-11 01:21:00,58.0,57.5,29.85,SW,225,2.0,-999.0,98,0.42,,,0.68,Rainwise IP-100,2013-01-11 07:21:00,
2013-01-11 01:26:00,58.0,57.5,29.87,NW,315,2.0,-999.0,98,0.06,,,0.68,Rainwise IP-100,2013-01-11 07:26:00,
2013-01-11 01:32:00,58.0,57.5,29.87,SW,225,9.0,-999.0,98,0.00,,,0.68,Rainwise IP-100,2013-01-11 07:32:00,
2013-01-11 01:37:00,58.0,57.5,29.87,SW,225,12.0,-999.0,98,0.06,,,0.69,Rainwise IP-100,2013-01-11 07:37:00,
2013-01-11 01:42:00,57.0,56.5,29.87,SW,225,2.0,-999.0,98,0.06,,,0.69,Rainwise IP-100,2013-01-11 07:42:00,
2013-01-11 01:47:00,57.0,56.5,29.87,SW,225,8.0,-999.0,98,0.00,,,0.69,Rainwise IP-100,2013-01-11 07:47:00,
2013-01-11 01:52:00,57.0,56.5,29.87,SSW,202,4.0,-999.0,98,0.00,,,0.69,Rainwise IP-100,2013-01-11 07:52:00,
2013-01-11 01:57:00,57.0,56.5,29.87,ESE,112,4.0,-999.0,98,0.00,,,0.69,Rainwise IP-100,2013-01-11 07:57:00,
2013-01-11 02:02:00,57.0,56.5,29.87,SW,225,3.0,-999.0,98,0.00,,,0.69,Rainwise IP-100,2013-01-11 08:02:00,
2013-01-11 02:07:00,57.0,56.5,29.87,SSW,202,2.0,-999.0,98,0.00,,,0.69,Rainwise IP-100,2013-01-11 08:07:00,
2013-01-11 02:13:00,57.0,56.5,29.87,SSW,202,3.0,-999.0,98,0.06,,,0.70,Rainwise IP-100,2013-01-11 08:13:00,
2013-01-11 02:18:00,57.0,56.5,29.88,SSW,202,5.0,-999.0,98,0.06,,,0.70,Rainwise IP-100,2013-01-11 08:18:00,
2013-01-11 02:23:00,57.0,56.5,29.88,West,270,2.0,-999.0,98,0.00,,,0.70,Rainwise IP-100,2013-01-11 08:23:00,
2013-01-11 02:28:00,57.0,56.5,29.88,SSW,202,0.0,-999.0,98,0.00,,,0.70,Rainwise IP-100,2013-01-11 08:28:00,
2013-01-11 02:33:00,57.0,56.5,29.88,SW,225,3.0,-999.0,98,0.12,,,0.72,Rainwise IP-100,2013-01-11 08:33:00,
2013-01-11 02:38:00,57.0,56.5,29.88,SW,225,3.0,-999.0,98,0.12,,,0.72,Rainwise IP-100,2013-01-11 08:38:00,
2013-01-11 02:43:00,57.0,56.5,29.87,SSE,157,7.0,-999.0,98,0.00,,,0.72,Rainwise IP-100,2013-01-11 08:43:00,
2013-01-11 02:49:00,57.0,56.5,29.87,South,180,3.0,-999.0,98,0.00,,,0.72,Rainwise IP-100,2013-01-11 08:49:00,
2013-01-11 02:53:00,57.0,56.5,29.87,SW,225,3.0,-999.0,98,0.00,,,0.72,Rainwise IP-100,2013-01-11 08:53:00,
2013-01-11 02:59:00,57.0,56.5,29.87,SW,225,2.0,-999.0,98,0.00,,,0.72,Rainwise IP-100,2013-01-11 08:59:00,
2013-01-11 03:04:00,57.0,56.5,29.87,SW,225,6.0,-999.0,98,0.00,,,0.72,Rainwise IP-100,2013-01-11 09:04:00,
2013-01-11 03:09:00,57.0,56.5,29.87,SW,225,2.0,-999.0,98,0.00,,,0.72,Rainwise IP-100,2013-01-11 09:09:00,
2013-01-11 03:14:00,57.0,56.5,29.87,SSW,202,6.0,-999.0,98,0.00,,,0.72,Rainwise IP-100,2013-01-11 09:14:00,
2013-01-11 03:19:00,57.0,56.5,29.87,SSW,202,6.0,-999.0,97,0.00,,,0.72,Rainwise IP-100,2013-01-11 09:19:00,
2013-01-11 03:25:00,58.0,57.5,29.87,South,180,6.0,-999.0,97,0.00,,,0.72,Rainwise IP-100,2013-01-11 09:25:00,
2013-01-11 03:30:00,57.0,56.0,29.87,SSE,157,5.0,-999.0,96,0.00,,,0.72,Rainwise IP-100,2013-01-11 09:30:00,
2013-01-11 03:35:00,57.0,56.0,29.87,West,270,2.0,-999.0,96,0.00,,,0.72,Rainwise IP-100,2013-01-11 09:35:00,
2013-01-11 03:40:00,58.0,57.0,29.87,SE,135,4.0,-999.0,96,0.00,,,0.72,Rainwise IP-100,2013-01-11 09:40:00,
2013-01-11 03:45:00,58.0,57.0,29.88,SSW,202,7.0,-999.0,95,0.00,,,0.72,Rainwise IP-100,2013-01-11 09:45:00,
2013-01-11 03:50:00,58.0,57.0,29.88,SW,225,7.0,-999.0,96,0.00,,,0.72,Rainwise IP-100,2013-01-11 09:50:00,
2013-01-11 03:55:00,58.0,57.0,29.87,SSW,202,2.0,-999.0,96,0.00,,,0.72,Rainwise IP-100,2013-01-11 09:55:00,
2013-01-11 04:01:00,58.0,57.0,29.87,SW,225,5.0,-999.0,96,0.00,,,0.72,Rainwise IP-100,2013-01-11 10:01:00,
2013-01-11 04:06:00,58.0,57.0,29.88,SSW,202,4.0,-999.0,95,0.00,,,0.72,Rainwise IP-100,2013-01-11 10:06:00,
2013-01-11 04:11:00,58.0,57.0,29.88,SW,225,2.0,-999.0,96,0.00,,,0.72,Rainwise IP-100,2013-01-11 10:11:00,
2013-01-11 04:16:00,58.0,57.0,29.88,SSW,202,5.0,-999.0,96,0.00,,,0.72,Rainwise IP-100,2013-01-11 10:16:00,
2013-01-11 04:21:00,57.0,56.0,29.88,SSW,202,6.0,-999.0,96,0.00,,,0.72,Rainwise IP-100,2013-01-11 10:21:00,
2013-01-11 04:26:00,57.0,56.0,29.89,SSE,157,6.0,-999.0,96,0.00,,,0.72,Rainwise IP-100,2013-01-11 10:26:00,
2013-01-11 04:31:00,57.0,56.0,29.89,SSW,202,4.0,-999.0,96,0.00,,,0.72,Rainwise IP-100,2013-01-11 10:31:00,
2013-01-11 04:36:00,57.0,56.0,29.89,SSW,202,6.0,-999.0,96,0.00,,,0.72,Rainwise IP-100,2013-01-11 10:36:00,
2013-01-11 04:42:00,57.0,56.0,29.89,SSW,202,4.0,-999.0,96,0.00,,,0.72,Rainwise IP-100,2013-01-11 10:42:00,
2013-01-11 04:47:00,57.0,56.5,29.89,South,180,3.0,-999.0,97,0.00,,,0.72,Rainwise IP-100,2013-01-11 10:47:00,
2013-01-11 04:52:00,57.0,56.0,29.89,SSW,202,6.0,-999.0,96,0.00,,,0.72,Rainwise IP-100,2013-01-11 10:52:00,
2013-01-11 04:57:00,57.0,56.0,29.88,WSW,247,9.0,-999.0,96,0.00,,,0.72,Rainwise IP-100,2013-01-11 10:57:00,
2013-01-11 05:02:00,57.0,56.0,29.88,SSW,202,10.0,-999.0,96,0.00,,,0.72,Rainwise IP-100,2013-01-11 11:02:00,
2013-01-11 05:07:00,57.0,56.0,29.89,SW,225,4.0,-999.0,95,0.00,,,0.72,Rainwise IP-100,2013-01-11 11:07:00,
2013-01-11 05:12:00,57.0,56.0,29.89,South,180,5.0,-999.0,95,0.00,,,0.72,Rainwise IP-100,2013-01-11 11:12:00,
2013-01-11 05:18:00,57.0,56.0,29.89,SSW,202,9.0,-999.0,96,0.00,,,0.72,Rainwise IP-100,2013-01-11 11:18:00,
2013-01-11 05:23:00,57.0,56.0,29.90,SW,225,5.0,-999.0,96,0.00,,,0.72,Rainwise IP-100,2013-01-11 11:23:00,
2013-01-11 05:28:00,57.0,56.0,29.90,SSW,202,10.0,-999.0,96,0.00,,,0.72,Rainwise IP-100,2013-01-11 11:28:00,
2013-01-11 05:33:00,57.0,56.0,29.90,SW,225,9.0,-999.0,96,0.00,,,0.72,Rainwise IP-100,2013-01-11 11:33:00,
2013-01-11 05:38:00,57.0,56.0,29.90,SW,225,6.0,-999.0,96,0.00,,,0.72,Rainwise IP-100,2013-01-11 11:38:00,
2013-01-11 05:43:00,57.0,56.0,29.90,South,180,3.0,-999.0,95,0.00,,,0.72,Rainwise IP-100,2013-01-11 11:43:00,
2013-01-11 05:48:00,57.0,56.0,29.90,SSW,202,3.0,-999.0,96,0.00,,,0.72,Rainwise IP-100,2013-01-11 11:48:00,
2013-01-11 05:53:00,57.0,56.0,29.90,SW,225,3.0,-999.0,96,0.00,,,0.72,Rainwise IP-100,2013-01-11 11:53:00,
2013-01-11 05:59:00,57.0,56.0,29.90,SSW,202,7.0,-999.0,96,0.00,,,0.72,Rainwise IP-100,2013-01-11 11:59:00,
2013-01-11 06:04:00,57.0,56.0,29.91,SW,225,7.0,-999.0,96,0.00,,,0.72,Rainwise IP-100,2013-01-11 12:04:00,
2013-01-11 06:09:00,56.0,54.5,29.91,SSE,157,6.0,-999.0,95,0.00,,,0.72,Rainwise IP-100,2013-01-11 12:09:00,
2013-01-11 06:14:00,56.0,54.5,29.91,South,180,6.0,-999.0,96,0.00,,,0.72,Rainwise IP-100,2013-01-11 12:14:00,
2013-01-11 06:19:00,56.0,54.5,29.91,South,180,6.0,-999.0,96,0.00,,,0.72,Rainwise IP-100,2013-01-11 12:19:00,
2013-01-11 06:24:00,56.0,54.5,29.91,SSW,202,6.0,-999.0,96,0.00,,,0.72,Rainwise IP-100,2013-01-11 12:24:00,
2013-01-11 06:29:00,56.0,54.5,29.91,South,180,5.0,-999.0,96,0.00,,,0.72,Rainwise IP-100,2013-01-11 12:29:00,
2013-01-11 06:35:00,56.0,54.5,29.92,South,180,6.0,-999.0,96,0.00,,,0.72,Rainwise IP-100,2013-01-11 12:35:00,
2013-01-11 06:40:00,56.0,54.5,29.92,South,180,6.0,-999.0,96,0.00,,,0.72,Rainwise IP-100,2013-01-11 12:40:00,
2013-01-11 06:45:00,56.0,54.5,29.93,South,180,6.0,-999.0,96,0.00,,,0.72,Rainwise IP-100,2013-01-11 12:45:00,
2013-01-11 06:50:00,56.0,54.5,29.93,SSE,157,7.0,-999.0,96,0.00,,,0.72,Rainwise IP-100,2013-01-11 12:50:00,
2013-01-11 06:55:00,56.0,54.5,29.93,South,180,2.0,-999.0,96,0.00,,,0.72,Rainwise IP-100,2013-01-11 12:55:00,
2013-01-11 07:00:00,56.0,54.5,29.93,South,180,9.0,-999.0,96,0.00,,,0.72,Rainwise IP-100,2013-01-11 13:00:00,
2013-01-11 07:05:00,56.0,54.5,29.92,SSE,157,9.0,-999.0,96,0.00,,,0.72,Rainwise IP-100,2013-01-11 13:05:00,
2013-01-11 07:10:00,55.0,54.0,29.92,SSE,157,6.0,-999.0,96,0.00,,,0.72,Rainwise IP-100,2013-01-11 13:10:00,
2013-01-11 07:16:00,56.0,54.5,29.93,SSW,202,3.0,-999.0,96,0.00,,,0.72,Rainwise IP-100,2013-01-11 13:16:00,
2013-01-11 07:21:00,56.0,54.5,29.93,SW,225,6.0,-999.0,96,0.00,,,0.72,Rainwise IP-100,2013-01-11 13:21:00,
2013-01-11 07:26:00,56.0,54.5,29.94,SSW,202,3.0,-999.0,96,0.00,,,0.72,Rainwise IP-100,2013-01-11 13:26:00,
2013-01-11 07:31:00,56.0,54.5,29.94,SSW,202,6.0,-999.0,96,0.00,,,0.72,Rainwise IP-100,2013-01-11 13:31:00,
2013-01-11 07:36:00,56.0,54.5,29.94,South,180,5.0,-999.0,95,0.00,,,0.72,Rainwise IP-100,2013-01-11 13:36:00,
2013-01-11 07:41:00,56.0,54.5,29.94,South,180,4.0,-999.0,95,0.00,,,0.72,Rainwise IP-100,2013-01-11 13:41:00,
2013-01-11 07:46:00,56.0,54.5,29.95,SSW,202,5.0,-999.0,95,0.00,,,0.72,Rainwise IP-100,2013-01-11 13:46:00,
2013-01-11 07:52:00,56.0,54.5,29.95,SSW,202,4.0,-999.0,95,0.00,,,0.72,Rainwise IP-100,2013-01-11 13:52:00,
2013-01-11 07:57:00,56.0,54.5,29.95,SW,225,7.0,-999.0,95,0.00,,,0.72,Rainwise IP-100,2013-01-11 13:57:00,
2013-01-11 08:02:00,56.0,54.0,29.95,South,180,5.0,-999.0,94,0.00,,,0.72,Rainwise IP-100,2013-01-11 14:02:00,
2013-01-11 08:07:00,56.0,54.0,29.95,SSE,157,9.0,-999.0,94,0.00,,,0.72,Rainwise IP-100,2013-01-11 14:07:00,
2013-01-11 08:12:00,56.0,54.0,29.95,SW,225,6.0,-999.0,93,0.00,,,0.72,Rainwise IP-100,2013-01-11 14:12:00,
2013-01-11 08:17:00,56.0,53.5,29.95,South,180,7.0,-999.0,92,0.00,,,0.72,Rainwise IP-100,2013-01-11 14:17:00,
2013-01-11 08:22:00,57.0,55.0,29.96,SW,225,2.0,-999.0,93,0.00,,,0.72,Rainwise IP-100,2013-01-11 14:22:00,
2013-01-11 08:27:00,57.0,55.0,29.96,South,180,5.0,-999.0,93,0.00,,,0.72,Rainwise IP-100,2013-01-11 14:27:00,
2013-01-11 08:33:00,57.0,54.5,29.97,SW,225,6.0,-999.0,92,0.00,,,0.72,Rainwise IP-100,2013-01-11 14:33:00,
2013-01-11 08:38:00,57.0,54.5,29.97,SSE,157,7.0,-999.0,92,0.00,,,0.72,Rainwise IP-100,2013-01-11 14:38:00,
2013-01-11 08:43:00,57.0,54.5,29.97,South,180,6.0,-999.0,92,0.00,,,0.72,Rainwise IP-100,2013-01-11 14:43:00,
2013-01-11 08:48:00,57.0,54.0,29.97,SW,225,6.0,-999.0,90,0.00,,,0.72,Rainwise IP-100,2013-01-11 14:48:00,
2013-01-11 08:53:00,58.0,54.5,29.97,SW,225,8.0,-999.0,88,0.00,,,0.72,Rainwise IP-100,2013-01-11 14:53:00,
2013-01-11 08:58:00,58.0,54.5,29.97,SW,225,5.0,-999.0,87,0.00,,,0.72,Rainwise IP-100,2013-01-11 14:58:00,
2013-01-11 09:03:00,58.0,54.5,29.97,SW,225,6.0,-999.0,88,0.00,,,0.72,Rainwise IP-100,2013-01-11 15:03:00,
2013-01-11 09:08:00,58.0,54.0,29.97,South,180,6.0,-999.0,86,0.00,,,0.72,Rainwise IP-100,2013-01-11 15:08:00,
2013-01-11 09:14:00,58.0,54.0,29.98,SW,225,2.0,-999.0,85,0.00,,,0.72,Rainwise IP-100,2013-01-11 15:14:00,
2013-01-11 09:19:00,58.0,53.5,29.98,SSW,202,3.0,-999.0,84,0.00,,,0.72,Rainwise IP-100,2013-01-11 15:19:00,
2013-01-11 09:24:00,59.0,54.0,29.97,South,180,12.0,-999.0,83,0.00,,,0.72,Rainwise IP-100,2013-01-11 15:24:00,
2013-01-11 09:29:00,59.0,54.0,29.97,SW,225,3.0,-999.0,83,0.00,,,0.72,Rainwise IP-100,2013-01-11 15:29:00,
2013-01-11 09:34:00,58.0,53.0,29.98,SW,225,7.0,-999.0,82,0.00,,,0.72,Rainwise IP-100,2013-01-11 15:34:00,
2013-01-11 09:39:00,58.0,53.0,29.98,SW,225,12.0,-999.0,82,0.00,,,0.72,Rainwise IP-100,2013-01-11 15:39:00,
2013-01-11 09:44:00,58.0,53.0,29.98,SSW,202,6.0,-999.0,82,0.00,,,0.72,Rainwise IP-100,2013-01-11 15:44:00,
2013-01-11 09:50:00,58.0,53.5,29.98,SSE,157,6.0,-999.0,83,0.00,,,0.72,Rainwise IP-100,2013-01-11 15:50:00,
2013-01-11 09:55:00,59.0,53.5,29.98,South,180,5.0,-999.0,81,0.00,,,0.72,Rainwise IP-100,2013-01-11 15:55:00,
2013-01-11 10:00:00,59.0,53.0,29.98,South,180,6.0,-999.0,79,0.00,,,0.72,Rainwise IP-100,2013-01-11 16:00:00,
2013-01-11 10:05:00,59.0,53.0,29.99,SW,225,9.0,-999.0,79,0.00,,,0.72,Rainwise IP-100,2013-01-11 16:05:00,
2013-01-11 10:10:00,59.0,53.0,29.99,SSW,202,6.0,-999.0,79,0.00,,,0.72,Rainwise IP-100,2013-01-11 16:10:00,
2013-01-11 10:15:00,59.0,53.5,29.98,SSW,202,6.0,-999.0,81,0.00,,,0.72,Rainwise IP-100,2013-01-11 16:15:00,
2013-01-11 10:20:00,58.0,52.0,29.98,SSW,202,13.0,-999.0,80,0.00,,,0.72,Rainwise IP-100,2013-01-11 16:20:00,
2013-01-11 10:25:00,59.0,53.0,29.98,South,180,6.0,-999.0,80,0.00,,,0.72,Rainwise IP-100,2013-01-11 16:25:00,
2013-01-11 10:31:00,58.0,52.0,29.98,South,180,5.0,-999.0,79,0.00,,,0.72,Rainwise IP-100,2013-01-11 16:31:00,
2013-01-11 10:36:00,59.0,53.0,29.97,SSW,202,8.0,-999.0,79,0.00,,,0.72,Rainwise IP-100,2013-01-11 16:36:00,
2013-01-11 10:41:00,59.0,51.0,29.97,SW,225,7.0,-999.0,76,0.00,,,0.72,Rainwise IP-100,2013-01-11 16:41:00,
2013-01-11 10:46:00,60.0,52.0,29.96,West,270,9.0,-999.0,75,0.00,,,0.72,Rainwise IP-100,2013-01-11 16:46:00,
2013-01-11 10:51:00,60.0,52.0,29.96,SW,225,7.0,-999.0,75,0.00,,,0.72,Rainwise IP-100,2013-01-11 16:51:00,
2013-01-11 10:56:00,60.0,52.0,29.95,SW,225,16.0,-999.0,75,0.00,,,0.72,Rainwise IP-100,2013-01-11 16:56:00,
2013-01-11 11:01:00,60.0,53.0,29.95,SSW,202,6.0,-999.0,77,0.00,,,0.72,Rainwise IP-100,2013-01-11 17:01:00,
2013-01-11 11:07:00,60.0,52.0,29.95,SSW,202,6.0,-999.0,75,0.00,,,0.72,Rainwise IP-100,2013-01-11 17:07:00,
2013-01-11 11:12:00,60.0,53.0,29.95,South,180,7.0,-999.0,76,0.00,,,0.72,Rainwise IP-100,2013-01-11 17:12:00,
2013-01-11 11:17:00,60.0,52.0,29.95,SSW,202,6.0,-999.0,75,0.00,,,0.72,Rainwise IP-100,2013-01-11 17:17:00,
2013-01-11 11:22:00,61.0,53.5,29.95,SW,225,6.0,-999.0,75,0.00,,,0.72,Rainwise IP-100,2013-01-11 17:22:00,
2013-01-11 11:27:00,61.0,53.0,29.93,South,180,8.0,-999.0,74,0.00,,,0.72,Rainwise IP-100,2013-01-11 17:27:00,
2013-01-11 11:32:00,62.0,52.0,29.93,SSW,202,6.0,-999.0,70,0.00,,,0.72,Rainwise IP-100,2013-01-11 17:32:00,
2013-01-11 11:37:00,62.0,53.0,29.92,SSW,202,2.0,-999.0,72,0.00,,,0.72,Rainwise IP-100,2013-01-11 17:37:00,
2013-01-11 11:42:00,62.0,53.0,29.92,SW,225,5.0,-999.0,71,0.00,,,0.72,Rainwise IP-100,2013-01-11 17:42:00,
2013-01-11 11:48:00,63.0,54.0,29.91,SW,225,2.0,-999.0,72,0.00,,,0.72,Rainwise IP-100,2013-01-11 17:48:00,
2013-01-11 11:53:00,63.0,52.0,29.91,SSW,202,9.0,-999.0,67,0.00,,,0.72,Rainwise IP-100,2013-01-11 17:53:00,
2013-01-11 11:58:00,64.0,53.0,29.91,SE,135,6.0,-999.0,67,0.00,,,0.72,Rainwise IP-100,2013-01-11 17:58:00,
2013-01-11 12:03:00,63.0,51.0,29.91,SW,225,8.0,-999.0,66,0.00,,,0.72,Rainwise IP-100,2013-01-11 18:03:00,
2013-01-11 12:08:00,63.0,51.0,29.91,SW,225,9.0,-999.0,66,0.00,,,0.72,Rainwise IP-100,2013-01-11 18:08:00,
2013-01-11 12:13:00,64.0,53.0,29.90,South,180,8.0,-999.0,66,0.00,,,0.72,Rainwise IP-100,2013-01-11 18:13:00,
2013-01-11 12:18:00,64.0,53.0,29.90,SSW,202,6.0,-999.0,66,0.00,,,0.72,Rainwise IP-100,2013-01-11 18:18:00,
2013-01-11 12:24:00,64.0,53.0,29.90,SW,225,6.0,-999.0,66,0.00,,,0.72,Rainwise IP-100,2013-01-11 18:24:00,
2013-01-11 12:29:00,64.0,52.0,29.90,South,180,6.0,-999.0,65,0.00,,,0.72,Rainwise IP-100,2013-01-11 18:29:00,
2013-01-11 12:34:00,64.0,51.0,29.90,SW,225,6.0,-999.0,64,0.00,,,0.72,Rainwise IP-100,2013-01-11 18:34:00,
2013-01-11 12:39:00,64.0,51.0,29.90,SSW,202,7.0,-999.0,64,0.00,,,0.72,Rainwise IP-100,2013-01-11 18:39:00,
2013-01-11 12:44:00,64.0,50.5,29.89,SW,225,10.0,-999.0,62,0.00,,,0.72,Rainwise IP-100,2013-01-11 18:44:00,
2013-01-11 12:49:00,64.0,50.5,29.89,SW,225,15.0,-999.0,61,0.00,,,0.72,Rainwise IP-100,2013-01-11 18:49:00,
2013-01-11 12:54:00,65.0,51.0,29.89,SSW,202,6.0,-999.0,62,0.00,,,0.72,Rainwise IP-100,2013-01-11 18:54:00,
2013-01-11 12:59:00,64.0,51.0,29.89,SW,225,6.0,-999.0,63,0.00,,,0.72,Rainwise IP-100,2013-01-11 18:59:00,
2013-01-11 13:05:00,64.0,51.0,29.90,South,180,7.0,-999.0,63,0.00,,,0.72,Rainwise IP-100,2013-01-11 19:05:00,
2013-01-11 13:10:00,64.0,50.5,29.90,SSW,202,9.0,-999.0,62,0.00,,,0.72,Rainwise IP-100,2013-01-11 19:10:00,
2013-01-11 13:15:00,64.0,51.0,29.89,South,180,7.0,-999.0,63,0.00,,,0.72,Rainwise IP-100,2013-01-11 19:15:00,
2013-01-11 13:20:00,64.0,50.5,29.89,SSW,202,9.0,-999.0,62,0.00,,,0.72,Rainwise IP-100,2013-01-11 19:20:00,
2013-01-11 13:25:00,64.0,50.5,29.89,SSW,202,8.0,-999.0,61,0.00,,,0.72,Rainwise IP-100,2013-01-11 19:25:00,
2013-01-11 13:30:00,65.0,51.0,29.89,SW,225,2.0,-999.0,62,0.00,,,0.72,Rainwise IP-100,2013-01-11 19:30:00,
2013-01-11 13:35:00,65.0,50.5,29.90,SW,225,10.0,-999.0,59,0.00,,,0.72,Rainwise IP-100,2013-01-11 19:35:00,
2013-01-11 13:40:00,65.0,50.5,29.90,SSW,202,6.0,-999.0,60,0.00,,,0.72,Rainwise IP-100,2013-01-11 19:40:00,
2013-01-11 13:46:00,65.0,50.5,29.89,SSE,157,3.0,-999.0,59,0.00,,,0.72,Rainwise IP-100,2013-01-11 19:46:00,
2013-01-11 13:51:00,64.0,49.0,29.89,SW,225,10.0,-999.0,59,0.00,,,0.72,Rainwise IP-100,2013-01-11 19:51:00,
2013-01-11 13:56:00,65.0,50.5,29.89,South,180,5.0,-999.0,60,0.00,,,0.72,Rainwise IP-100,2013-01-11 19:56:00,
2013-01-11 14:01:00,65.0,50.0,29.89,SSW,202,6.0,-999.0,58,0.00,,,0.72,Rainwise IP-100,2013-01-11 20:01:00,
2013-01-11 14:06:00,65.0,50.0,29.90,SSW,202,6.0,-999.0,58,0.00,,,0.72,Rainwise IP-100,2013-01-11 20:06:00,
2013-01-11 14:11:00,65.0,49.0,29.90,South,180,12.0,-999.0,57,0.00,,,0.72,Rainwise IP-100,2013-01-11 20:11:00,
2013-01-11 14:16:00,65.0,49.0,29.90,SSW,202,8.0,-999.0,57,0.00,,,0.72,Rainwise IP-100,2013-01-11 20:16:00,
2013-01-11 14:22:00,65.0,50.5,29.90,South,180,2.0,-999.0,59,0.00,,,0.72,Rainwise IP-100,2013-01-11 20:22:00,
2013-01-11 14:27:00,65.0,49.0,29.90,SW,225,9.0,-999.0,57,0.00,,,0.72,Rainwise IP-100,2013-01-11 20:27:00,
2013-01-11 14:32:00,65.0,49.0,29.90,SW,225,6.0,-999.0,57,0.00,,,0.72,Rainwise IP-100,2013-01-11 20:32:00,
2013-01-11 14:37:00,65.0,50.0,29.89,SW,225,6.0,-999.0,58,0.00,,,0.72,Rainwise IP-100,2013-01-11 20:37:00,
2013-01-11 14:42:00,65.0,49.0,29.89,SW,225,5.0,-999.0,56,0.00,,,0.72,Rainwise IP-100,2013-01-11 20:42:00,
2013-01-11 14:47:00,65.0,48.0,29.89,SW,225,9.0,-999.0,55,0.00,,,0.72,Rainwise IP-100,2013-01-11 20:47:00,
2013-01-11 14:52:00,65.0,47.5,29.89,SW,225,7.0,-999.0,54,0.00,,,0.72,Rainwise IP-100,2013-01-11 20:52:00,
2013-01-11 14:57:00,65.0,48.0,29.89,SW,225,7.0,-999.0,55,0.00,,,0.72,Rainwise IP-100,2013-01-11 20:57:00,
2013-01-11 15:03:00,65.0,47.5,29.89,South,180,8.0,-999.0,54,0.00,,,0.72,Rainwise IP-100,2013-01-11 21:03:00,
2013-01-11 15:08:00,65.0,47.5,29.90,South,180,10.0,-999.0,54,0.00,,,0.72,Rainwise IP-100,2013-01-11 21:08:00,
2013-01-11 15:13:00,65.0,48.0,29.90,SW,225,7.0,-999.0,55,0.00,,,0.72,Rainwise IP-100,2013-01-11 21:13:00,
2013-01-11 15:18:00,65.0,47.5,29.90,South,180,10.0,-999.0,54,0.00,,,0.72,Rainwise IP-100,2013-01-11 21:18:00,
2013-01-11 15:23:00,65.0,47.5,29.90,NW,315,9.0,-999.0,54,0.00,,,0.72,Rainwise IP-100,2013-01-11 21:23:00,
2013-01-11 15:28:00,64.0,47.5,29.90,SSW,202,3.0,-999.0,55,0.00,,,0.72,Rainwise IP-100,2013-01-11 21:28:00,
2013-01-11 15:33:00,64.0,48.0,29.90,SSW,202,6.0,-999.0,56,0.00,,,0.72,Rainwise IP-100,2013-01-11 21:33:00,
2013-01-11 15:39:00,64.0,48.0,29.90,SSW,202,6.0,-999.0,56,0.00,,,0.72,Rainwise IP-100,2013-01-11 21:39:00,
2013-01-11 15:44:00,64.0,48.0,29.90,West,270,4.0,-999.0,56,0.00,,,0.72,Rainwise IP-100,2013-01-11 21:44:00,
2013-01-11 15:49:00,64.0,48.0,29.90,SW,225,7.0,-999.0,56,0.00,,,0.72,Rainwise IP-100,2013-01-11 21:49:00,
2013-01-11 15:54:00,64.0,48.0,29.90,SW,225,9.0,-999.0,56,0.00,,,0.72,Rainwise IP-100,2013-01-11 21:54:00,
2013-01-11 15:59:00,64.0,48.0,29.90,SW,225,6.0,-999.0,56,0.00,,,0.72,Rainwise IP-100,2013-01-11 21:59:00,
2013-01-11 16:04:00,64.0,49.0,29.89,South,180,10.0,-999.0,58,0.00,,,0.72,Rainwise IP-100,2013-01-11 22:04:00,
2013-01-11 16:09:00,64.0,48.0,29.89,SW,225,7.0,-999.0,56,0.00,,,0.72,Rainwise IP-100,2013-01-11 22:09:00,
2013-01-11 16:14:00,64.0,48.0,29.89,SW,225,7.0,-999.0,57,0.00,,,0.72,Rainwise IP-100,2013-01-11 22:14:00,
2013-01-11 16:20:00,64.0,48.0,29.89,SW,225,5.0,-999.0,57,0.00,,,0.72,Rainwise IP-100,2013-01-11 22:20:00,
2013-01-11 16:25:00,63.0,48.0,29.89,SW,225,3.0,-999.0,58,0.00,,,0.72,Rainwise IP-100,2013-01-11 22:25:00,
2013-01-11 16:30:00,63.0,48.0,29.89,South,180,6.0,-999.0,59,0.00,,,0.72,Rainwise IP-100,2013-01-11 22:30:00,
2013-01-11 16:35:00,63.0,48.0,29.89,SW,225,6.0,-999.0,59,0.00,,,0.72,Rainwise IP-100,2013-01-11 22:35:00,
2013-01-11 16:40:00,63.0,48.0,29.89,South,180,4.0,-999.0,59,0.00,,,0.72,Rainwise IP-100,2013-01-11 22:40:00,
2013-01-11 16:45:00,63.0,49.0,29.89,SSW,202,1.0,-999.0,60,0.00,,,0.72,Rainwise IP-100,2013-01-11 22:45:00,
2013-01-11 16:50:00,63.0,49.0,29.89,South,180,4.0,-999.0,60,0.00,,,0.72,Rainwise IP-100,2013-01-11 22:50:00,
2013-01-11 16:56:00,62.0,48.0,29.88,SSW,202,6.0,-999.0,61,0.00,,,0.72,Rainwise IP-100,2013-01-11 22:56:00,
2013-01-11 17:01:00,62.0,48.0,29.88,South,180,5.0,-999.0,61,0.00,,,0.72,Rainwise IP-100,2013-01-11 23:01:00,
2013-01-11 17:06:00,62.0,49.0,29.89,South,180,6.0,-999.0,62,0.00,,,0.72,Rainwise IP-100,2013-01-11 23:06:00,
2013-01-11 17:11:00,62.0,49.0,29.89,SSE,157,6.0,-999.0,63,0.00,,,0.72,Rainwise IP-100,2013-01-11 23:11:00,
2013-01-11 17:16:00,62.0,49.0,29.89,South,180,6.0,-999.0,63,0.00,,,0.72,Rainwise IP-100,2013-01-11 23:16:00,
2013-01-11 17:21:00,62.0,50.0,29.89,South,180,5.0,-999.0,64,0.00,,,0.72,Rainwise IP-100,2013-01-11 23:21:00,
2013-01-11 17:26:00,61.0,49.0,29.89,SSW,202,3.0,-999.0,64,0.00,,,0.72,Rainwise IP-100,2013-01-11 23:26:00,
2013-01-11 17:31:00,61.0,49.0,29.89,SSE,157,5.0,-999.0,65,0.00,,,0.72,Rainwise IP-100,2013-01-11 23:31:00,
2013-01-11 17:37:00,61.0,49.0,29.89,South,180,3.0,-999.0,65,0.00,,,0.72,Rainwise IP-100,2013-01-11 23:37:00,
2013-01-11 17:42:00,61.0,50.0,29.89,South,180,3.0,-999.0,66,0.00,,,0.72,Rainwise IP-100,2013-01-11 23:42:00,
2013-01-11 17:47:00,61.0,50.0,29.90,SW,225,4.0,-999.0,66,0.00,,,0.72,Rainwise IP-100,2013-01-11 23:47:00,
2013-01-11 17:52:00,61.0,50.0,29.90,South,180,2.0,-999.0,67,0.00,,,0.72,Rainwise IP-100,2013-01-11 23:52:00,
2013-01-11 17:57:00,60.0,49.0,29.90,South,180,2.0,-999.0,68,0.00,,,0.72,Rainwise IP-100,2013-01-11 23:57:00,
2013-01-11 18:02:00,60.0,50.0,29.90,SSE,157,1.0,-999.0,69,0.00,,,0.72,Rainwise IP-100,2013-01-12 00:02:00,
2013-01-11 18:07:00,59.0,49.0,29.89,SSE,157,1.0,-999.0,70,0.00,,,0.72,Rainwise IP-100,2013-01-12 00:07:00,
2013-01-11 18:13:00,59.0,50.0,29.89,SSE,157,1.0,-999.0,71,0.00,,,0.72,Rainwise IP-100,2013-01-12 00:13:00,
2013-01-11 18:18:00,59.0,50.0,29.90,South,180,0.0,-999.0,72,0.00,,,0.72,Rainwise IP-100,2013-01-12 00:18:00,
2013-01-11 18:23:00,58.0,50.0,29.90,South,180,1.0,-999.0,73,0.00,,,0.72,Rainwise IP-100,2013-01-12 00:23:00,
2013-01-11 18:28:00,58.0,50.0,29.90,South,180,0.0,-999.0,74,0.00,,,0.72,Rainwise IP-100,2013-01-12 00:28:00,
2013-01-11 18:33:00,58.0,50.0,29.90,South,180,0.0,-999.0,74,0.00,,,0.72,Rainwise IP-100,2013-01-12 00:33:00,
2013-01-11 18:38:00,57.0,49.0,29.89,South,180,0.0,-999.0,75,0.00,,,0.72,Rainwise IP-100,2013-01-12 00:38:00,
2013-01-11 18:43:00,56.0,49.0,29.91,South,180,0.0,-999.0,77,0.00,,,0.72,Rainwise IP-100,2013-01-12 00:43:00,
2013-01-11 18:48:00,56.0,49.0,29.91,South,180,0.0,-999.0,78,0.00,,,0.72,Rainwise IP-100,2013-01-12 00:48:00,
2013-01-11 18:54:00,57.0,50.0,29.89,WSW,247,1.0,-999.0,77,0.00,,,0.72,Rainwise IP-100,2013-01-12 00:54:00,
2013-01-11 18:59:00,56.0,49.0,29.89,WSW,247,0.0,-999.0,77,0.00,,,0.72,Rainwise IP-100,2013-01-12 00:59:00,
2013-01-11 19:04:00,56.0,50.0,29.90,WSW,247,2.0,-999.0,79,0.00,,,0.72,Rainwise IP-100,2013-01-12 01:04:00,
2013-01-11 19:09:00,56.0,49.0,29.90,WSW,247,0.0,-999.0,78,0.00,,,0.72,Rainwise IP-100,2013-01-12 01:09:00,
2013-01-11 19:14:00,56.0,50.0,29.91,WSW,247,0.0,-999.0,79,0.00,,,0.72,Rainwise IP-100,2013-01-12 01:14:00,
2013-01-11 19:19:00,56.0,50.0,29.91,WSW,247,0.0,-999.0,79,0.00,,,0.72,Rainwise IP-100,2013-01-12 01:19:00,
2013-01-11 19:24:00,55.0,49.0,29.91,WSW,247,0.0,-999.0,80,0.00,,,0.72,Rainwise IP-100,2013-01-12 01:24:00,
2013-01-11 19:30:00,55.0,50.0,29.91,WSW,247,0.0,-999.0,82,0.00,,,0.72,Rainwise IP-100,2013-01-12 01:30:00,
2013-01-11 19:35:00,54.0,49.0,29.92,WSW,247,0.0,-999.0,84,0.00,,,0.72,Rainwise IP-100,2013-01-12 01:35:00,
2013-01-11 19:40:00,54.0,50.0,29.92,WSW,247,0.0,-999.0,86,0.00,,,0.72,Rainwise IP-100,2013-01-12 01:40:00,
2013-01-11 19:45:00,54.0,50.5,29.92,WSW,247,0.0,-999.0,87,0.00,,,0.72,Rainwise IP-100,2013-01-12 01:45:00,
2013-01-11 19:50:00,54.0,50.5,29.92,SE,135,3.0,-999.0,87,0.00,,,0.72,Rainwise IP-100,2013-01-12 01:50:00,
2013-01-11 19:55:00,54.0,50.5,29.92,SSE,157,2.0,-999.0,88,0.00,,,0.72,Rainwise IP-100,2013-01-12 01:55:00,
2013-01-11 20:00:00,53.0,49.0,29.92,SSE,157,0.0,-999.0,87,0.00,,,0.72,Rainwise IP-100,2013-01-12 02:00:00,
2013-01-11 20:05:00,53.0,49.0,29.91,SSE,157,0.0,-999.0,88,0.00,,,0.72,Rainwise IP-100,2013-01-12 02:05:00,
2013-01-11 20:10:00,52.0,49.0,29.91,NE,45,1.0,-999.0,90,0.00,,,0.72,Rainwise IP-100,2013-01-12 02:10:00,
2013-01-11 20:16:00,52.0,49.0,29.92,NE,45,0.0,-999.0,91,0.00,,,0.72,Rainwise IP-100,2013-01-12 02:16:00,
2013-01-11 20:21:00,53.0,50.0,29.92,SSW,202,0.0,-999.0,91,0.00,,,0.72,Rainwise IP-100,2013-01-12 02:21:00,
2013-01-11 20:26:00,55.0,51.0,29.91,SE,135,2.0,-999.0,87,0.00,,,0.72,Rainwise IP-100,2013-01-12 02:26:00,
2013-01-11 20:31:00,54.0,50.0,29.91,SE,135,2.0,-999.0,86,0.00,,,0.72,Rainwise IP-100,2013-01-12 02:31:00,
2013-01-11 20:36:00,54.0,50.5,29.91,SE,135,1.0,-999.0,87,0.00,,,0.72,Rainwise IP-100,2013-01-12 02:36:00,
2013-01-11 20:41:00,53.0,49.0,29.91,ESE,112,2.0,-999.0,88,0.00,,,0.72,Rainwise IP-100,2013-01-12 02:41:00,
2013-01-11 20:46:00,53.0,50.0,29.91,South,180,0.0,-999.0,90,0.00,,,0.72,Rainwise IP-100,2013-01-12 02:46:00,
2013-01-11 20:52:00,53.0,50.0,29.91,South,180,2.0,-999.0,89,0.00,,,0.72,Rainwise IP-100,2013-01-12 02:52:00,
2013-01-11 20:57:00,54.0,50.5,29.91,SSW,202,0.0,-999.0,89,0.00,,,0.72,Rainwise IP-100,2013-01-12 02:57:00,
2013-01-11 21:02:00,54.0,50.5,29.91,SSE,157,1.0,-999.0,88,0.00,,,0.72,Rainwise IP-100,2013-01-12 03:02:00,
2013-01-11 21:07:00,54.0,50.5,29.91,SE,135,0.0,-999.0,87,0.00,,,0.72,Rainwise IP-100,2013-01-12 03:07:00,
2013-01-11 21:12:00,55.0,50.5,29.91,South,180,2.0,-999.0,85,0.00,,,0.72,Rainwise IP-100,2013-01-12 03:12:00,
2013-01-11 21:17:00,55.0,50.5,29.90,SE,135,4.0,-999.0,83,0.00,,,0.72,Rainwise IP-100,2013-01-12 03:17:00,
2013-01-11 21:22:00,54.0,50.0,29.90,South,180,3.0,-999.0,86,0.00,,,0.72,Rainwise IP-100,2013-01-12 03:22:00,
2013-01-11 21:27:00,55.0,51.0,29.91,South,180,5.0,-999.0,86,0.00,,,0.72,Rainwise IP-100,2013-01-12 03:27:00,
2013-01-11 21:33:00,56.0,51.0,29.91,South,180,4.0,-999.0,85,0.00,,,0.72,Rainwise IP-100,2013-01-12 03:33:00,
2013-01-11 21:38:00,56.0,51.0,29.90,SSW,202,3.0,-999.0,85,0.00,,,0.72,Rainwise IP-100,2013-01-12 03:38:00,
2013-01-11 21:43:00,57.0,52.0,29.90,SW,225,6.0,-999.0,84,0.00,,,0.72,Rainwise IP-100,2013-01-12 03:43:00,
2013-01-11 21:48:00,58.0,54.0,29.89,SSW,202,5.0,-999.0,85,0.00,,,0.72,Rainwise IP-100,2013-01-12 03:48:00,
2013-01-11 21:53:00,58.0,53.5,29.90,South,180,4.0,-999.0,84,0.00,,,0.72,Rainwise IP-100,2013-01-12 03:53:00,
2013-01-11 21:58:00,58.0,53.5,29.90,South,180,6.0,-999.0,84,0.00,,,0.72,Rainwise IP-100,2013-01-12 03:58:00,
2013-01-11 22:03:00,59.0,54.0,29.90,South,180,5.0,-999.0,84,0.00,,,0.72,Rainwise IP-100,2013-01-12 04:03:00,
2013-01-11 22:09:00,59.0,54.5,29.90,South,180,5.0,-999.0,85,0.00,,,0.72,Rainwise IP-100,2013-01-12 04:09:00,
2013-01-11 22:14:00,59.0,54.5,29.90,SW,225,6.0,-999.0,86,0.00,,,0.72,Rainwise IP-100,2013-01-12 04:14:00,
2013-01-11 22:19:00,60.0,56.0,29.90,SSE,157,11.0,-999.0,86,0.00,,,0.72,Rainwise IP-100,2013-01-12 04:19:00,
2013-01-11 22:24:00,60.0,56.0,29.88,South,180,5.0,-999.0,86,0.00,,,0.72,Rainwise IP-100,2013-01-12 04:24:00,
2013-01-11 22:29:00,60.0,56.0,29.88,South,180,7.0,-999.0,87,0.00,,,0.72,Rainwise IP-100,2013-01-12 04:29:00,
2013-01-11 22:34:00,60.0,56.0,29.89,South,180,6.0,-999.0,87,0.00,,,0.72,Rainwise IP-100,2013-01-12 04:34:00,
2013-01-11 22:39:00,60.0,56.5,29.89,SSW,202,10.0,-999.0,88,0.00,,,0.72,Rainwise IP-100,2013-01-12 04:39:00,
2013-01-11 22:44:00,60.0,56.5,29.88,SSW,202,6.0,-999.0,88,0.00,,,0.72,Rainwise IP-100,2013-01-12 04:44:00,
2013-01-11 22:50:00,60.0,56.5,29.88,South,180,7.0,-999.0,88,0.00,,,0.72,Rainwise IP-100,2013-01-12 04:50:00,
2013-01-11 22:55:00,60.0,56.5,29.88,SSE,157,9.0,-999.0,89,0.00,,,0.72,Rainwise IP-100,2013-01-12 04:55:00,
2013-01-11 23:00:00,60.0,56.5,29.88,SSW,202,6.0,-999.0,89,0.00,,,0.72,Rainwise IP-100,2013-01-12 05:00:00,
2013-01-11 23:05:00,60.0,56.5,29.89,SSW,202,3.0,-999.0,89,0.00,,,0.72,Rainwise IP-100,2013-01-12 05:05:00,
2013-01-11 23:10:00,60.0,57.0,29.89,SW,225,5.0,-999.0,90,0.00,,,0.72,Rainwise IP-100,2013-01-12 05:10:00,
2013-01-11 23:16:00,60.0,57.0,29.89,SSW,202,6.0,-999.0,90,0.00,,,0.72,Rainwise IP-100,2013-01-12 05:16:00,
2013-01-11 23:21:00,60.0,57.0,29.89,SSW,202,7.0,-999.0,90,0.00,,,0.72,Rainwise IP-100,2013-01-12 05:21:00,
2013-01-11 23:26:00,60.0,57.0,29.89,South,180,10.0,-999.0,90,0.00,,,0.72,Rainwise IP-100,2013-01-12 05:26:00,
2013-01-11 23:31:00,60.0,57.0,29.89,SW,225,6.0,-999.0,90,0.00,,,0.72,Rainwise IP-100,2013-01-12 05:31:00,
2013-01-11 23:36:00,60.0,57.0,29.88,SW,225,4.0,-999.0,91,0.00,,,0.72,Rainwise IP-100,2013-01-12 05:36:00,
2013-01-11 23:41:00,59.0,56.5,29.88,SSW,202,9.0,-999.0,91,0.00,,,0.72,Rainwise IP-100,2013-01-12 05:41:00,
2013-01-11 23:46:00,60.0,57.0,29.88,South,180,10.0,-999.0,91,0.00,,,0.72,Rainwise IP-100,2013-01-12 05:46:00,
2013-01-11 23:52:00,60.0,57.0,29.88,SW,225,10.0,-999.0,91,0.00,,,0.72,Rainwise IP-100,2013-01-12 05:52:00,
2013-01-11 23:57:00,59.0,56.5,29.88,South,180,5.0,-999.0,91,0.00,,,0.72,Rainwise IP-100,2013-01-12 05:57:00,